[[{"header":{"parameterUnit":"m.s-1","parameterCategory":1,"la1":30.2991,"la2":30.254,"lo1":-89.0895,"lo2":-89.0444,"dy":0.0017,"dx":0.0017,"nx":28,"ny":28,"refTime":"2024-07-09T09:00:00:Z","depth":0,"parameterNumber":2,"parameterNumberName":"U-component_of_WINDS"},"data":[0,0,0,0,0,0,0,0,0,0,0,0,0,0,0,0,0,0,0,0,0,0,0,0,0,0,0,0,0,0,0,0,0,0,0,0,0,0,0,0,0,0,0,0,0,0,0,0,0,0,0,0,0,0,0,0,0,0,3.2409,3.241,0,3.2495,3.2496,3.2497,3.246,3.2458,3.2456,3.2454,3.2541,3.2545,3.2549,0,0,0,0,0,0,0,0,0,0,0,0,0,3.2208,3.2212,3.2409,3.241,3.2411,3.2495,3.2496,3.2498,3.246,3.2458,3.2455,3.2453,3.2539,3.2544,3.2549,0,0,0,0,0,0,0,0,0,0,0,0,0,3.2295,3.2213,3.2409,3.2403,3.2403,3.2495,3.2496,3.2498,3.2461,3.2457,3.2454,3.2451,3.2538,3.2544,3.255,3.2653,0,0,3.257,3.2573,0,0,0,0,0,0,0,0,3.229,3.2302,3.2402,3.2403,3.2404,3.2464,3.2457,3.255,3.2461,3.2439,3.2453,3.245,3.2517,3.2525,3.2548,3.2657,3.2661,3.257,3.2574,3.2577,3.2579,0,0,0,0,0,0,0,3.2284,3.2298,3.2443,3.2404,3.2405,3.2394,3.2403,3.2475,3.2495,3.244,3.2438,3.2449,3.2517,3.2542,3.255,3.2662,3.257,3.2576,3.258,3.2582,3.2855,3.2858,0,0,0,0,0,0,3.2278,3.2293,3.244,3.2446,3.2338,3.24,3.241,3.2447,3.2494,3.2498,3.2451,3.2447,3.2533,3.2543,3.2553,3.2673,3.2577,3.2583,3.2587,3.2852,3.2856,3.2859,0,0,0,0,0,0,3.2274,3.2292,3.2437,3.2369,3.2387,3.2407,3.2449,3.2451,3.2476,3.2502,3.2505,3.2474,3.2531,3.2544,3.2628,3.2676,3.2586,3.2592,3.2848,3.2853,3.2858,3.2916,0,0,0,0,0,0,3.2268,3.229,3.2331,3.237,3.239,3.2511,3.2452,3.2455,3.2487,3.2482,3.2524,3.2528,3.2529,3.2618,3.2634,3.2683,3.2597,3.2843,3.285,3.2856,3.291,3.2923,3.2934,0,0,0,0,0,3.2261,3.2344,3.2333,3.2351,3.2441,3.2514,3.2525,3.2526,3.2491,3.2531,3.2547,3.2526,3.2669,3.2627,3.2644,3.2696,3.284,3.2848,3.2856,3.2905,3.292,3.2933,0,0,0,0,0,0,3.231,3.2349,3.2337,3.2436,3.2472,3.2507,3.2557,3.2543,3.2589,3.2582,3.2581,3.2591,3.2676,3.2695,3.2648,3.2796,3.2749,3.276,3.278,3.2795,3.2807,3.2799,3.2602,0,0,0,0,0,3.2332,3.2389,3.242,3.2504,3.2522,3.2537,3.2569,3.2566,3.2603,3.2618,3.2641,3.2677,3.2729,3.2764,3.2814,3.2913,3.292,3.2957,3.2969,3.2979,3.2988,3.3038,3.3054,3.2885,3.2885,3.2884,0,0,3.2378,3.2407,3.2443,3.2514,3.2542,3.2598,3.255,3.2613,3.2655,3.2627,3.2707,3.2725,3.2765,3.2856,3.2897,3.2874,3.3036,3.2989,3.2996,3.3,3.3048,3.3064,3.3078,3.289,3.2889,3.2888,0,0,3.2491,3.252,3.2591,3.2619,3.2661,3.267,3.2687,3.2725,3.2736,3.2816,3.2795,3.2845,3.2936,3.2964,3.2991,3.3112,3.3093,3.3128,3.3189,3.3238,3.3251,3.3263,3.3303,3.3318,3.3138,3.3138,3.3138,0,3.2543,3.2629,3.2629,3.2693,3.2723,3.2702,3.2772,3.2799,3.2856,3.2877,3.2851,3.2963,3.2989,3.3084,3.3113,3.3137,3.3154,3.3122,3.325,3.3261,3.3272,3.331,3.3326,3.3142,3.3141,3.3141,3.3141,0,3.2688,3.2748,3.28,3.2854,3.2891,3.2958,3.2967,3.3004,3.2998,3.3009,3.3089,3.3119,3.3173,3.3196,3.3192,3.329,3.3274,3.3249,3.3201,3.3292,3.3328,3.3343,3.3147,3.3146,3.3145,3.3144,0,0,3.2833,3.2886,3.2905,3.2927,3.2972,3.3017,3.3082,3.3135,3.3165,3.3205,3.3257,3.3334,3.3311,3.3341,3.3339,3.3382,3.3472,3.3351,3.3352,3.337,3.3579,3.3595,3.3612,3.3461,3.3464,3.3466,3.3574,0,3.2946,3.306,3.3062,3.3166,3.3219,3.3198,3.3255,3.3287,3.3299,3.3345,3.3358,3.3411,3.3378,3.3395,3.3437,3.3452,3.3513,3.3445,3.3507,3.3509,3.3495,3.3631,3.3649,3.375,3.3589,3.3591,3.3593,0,3.3093,3.3136,3.3246,3.328,3.3302,3.3353,3.3399,3.3445,3.348,3.3485,3.3518,3.3509,3.3573,3.3525,3.3612,3.3565,3.3591,3.3602,3.3606,3.3609,3.3555,3.3635,3.3783,3.3797,3.3615,3.3613,3.3612,0,3.3183,3.3269,3.3345,3.3366,3.3408,3.3443,3.3463,3.3495,3.3526,3.3567,3.3586,3.3635,3.366,3.3697,3.3701,3.3666,3.3787,3.374,3.3791,3.3791,3.3815,3.3813,3.3966,3.3838,3.3837,3.3837,3.3837,0,3.3307,3.3374,3.3385,3.3431,3.3505,3.3505,3.3578,3.3594,3.3623,3.367,3.3656,3.3701,3.3704,3.375,3.3754,3.3823,3.3836,3.384,3.3839,3.3839,3.3838,3.3854,3.3846,3.3841,3.384,3.3839,3.3839,0,3.3419,3.343,3.351,3.3544,3.3553,3.3606,3.3633,3.3676,3.3687,3.3747,3.3761,3.3777,3.383,3.3838,3.39,3.3902,3.3984,3.3978,3.3972,3.397,3.4019,3.4013,3.4185,3.4206,3.4067,3.4068,3.4069,0,3.3496,3.3547,3.3585,3.3616,3.3637,3.3688,3.3718,3.3721,3.3753,3.3796,3.3833,3.3885,3.3925,3.4011,3.4027,3.4074,3.4066,3.4123,3.4073,3.4071,3.4063,3.4059,3.4062,3.4132,3.4134,3.4135,3.4136,0,3.3631,3.3633,3.3678,3.3725,3.3762,3.3799,3.3834,3.386,3.3866,3.3903,3.3957,3.3989,3.4051,3.4101,3.4147,3.4166,3.4151,3.4152,3.4165,3.4164,3.4157,3.4158,3.3995,3.4147,3.4146,3.4145,3.4145,3.4144,3.3725,3.3768,3.3801,3.3851,3.3877,3.391,3.3951,3.3966,3.4011,3.4061,3.406,3.4118,3.415,3.421,3.4232,3.4276,3.4257,3.4278,3.4283,3.4287,3.429,3.4153,3.4285,3.4285,3.4285,3.4284,3.4284,0,3.3855,3.3875,3.3922,3.397,3.4009,3.3993,3.403,3.4063,3.4114,3.4146,3.4186,3.4246,3.4294,3.4314,3.4361,3.4392,3.4387,3.4404,3.44,3.4404,3.4306,3.4288,3.4408,3.4408,3.4408,3.4408,3.4408,3.4408,3.3927,3.3998,3.4004,3.4086,3.4105,3.4162,3.4184,3.4213,3.4237,3.4305,3.4345,3.4358,3.4384,3.4432,3.4475,3.4479,3.4495,3.4515,3.4517,3.4424,3.4411,3.4399,3.4382,3.452,3.452,3.4611,3.4611,3.4612]},{"header":{"parameterUnit":"m.s-1","parameterCategory":1,"la1":30.2991,"la2":30.254,"lo1":-89.0895,"lo2":-89.0444,"dy":0.0017,"dx":0.0017,"nx":28,"ny":28,"refTime":"2024-07-09T09:00:00:Z","depth":0,"parameterNumber":3,"parameterNumberName":"V-component_of_WINDS"},"data":[0,0,0,0,0,0,0,0,0,0,0,0,0,0,0,0,0,0,0,0,0,0,0,0,0,0,0,0,0,0,0,0,0,0,0,0,0,0,0,0,0,0,0,0,0,0,0,0,0,0,0,0,0,0,0,0,0,0,5.7276,5.7277,0,5.7396,5.7398,5.7399,5.7357,5.7355,5.7352,5.735,5.7468,5.7474,5.7479,0,0,0,0,0,0,0,0,0,0,0,0,0,5.7004,5.7009,5.7276,5.7277,5.7279,5.7396,5.7398,5.7399,5.7358,5.7355,5.7351,5.7348,5.7466,5.7473,5.748,0,0,0,0,0,0,0,0,0,0,0,0,0,5.7123,5.701,5.7275,5.7272,5.7273,5.7396,5.7398,5.74,5.7359,5.7355,5.7351,5.7347,5.7464,5.7472,5.7481,5.7612,0,0,5.7506,5.751,0,0,0,0,0,0,0,0,5.7116,5.7133,5.7271,5.7273,5.7274,5.7358,5.7345,5.7471,5.736,5.7326,5.735,5.7345,5.7434,5.7445,5.7476,5.7617,5.7623,5.7507,5.7512,5.7516,5.7518,0,0,0,0,0,0,0,5.7108,5.7127,5.7323,5.7273,5.7275,5.7263,5.7275,5.7369,5.7401,5.7329,5.7326,5.7341,5.7434,5.7468,5.7479,5.7624,5.7507,5.7514,5.752,5.7523,5.7876,5.788,0,0,0,0,0,0,5.7099,5.7121,5.7319,5.7327,5.7184,5.7271,5.7285,5.7335,5.74,5.7406,5.7344,5.7339,5.7456,5.7469,5.7483,5.7638,5.7516,5.7524,5.7529,5.7872,5.7877,5.7881,0,0,0,0,0,0,5.7094,5.7118,5.7314,5.7223,5.7247,5.728,5.7336,5.7339,5.7373,5.7412,5.7416,5.7373,5.7453,5.7471,5.758,5.7642,5.7528,5.7535,5.7866,5.7873,5.7879,5.7952,0,0,0,0,0,0,5.7086,5.7116,5.7168,5.7225,5.7252,5.7412,5.734,5.7344,5.7388,5.7382,5.744,5.7446,5.7451,5.7567,5.7588,5.7651,5.7542,5.7861,5.7869,5.7877,5.7944,5.796,5.7974,0,0,0,0,0,5.7077,5.7183,5.7171,5.7195,5.7318,5.7415,5.7431,5.7437,5.7394,5.7445,5.7469,5.7444,5.7632,5.7579,5.7602,5.7669,5.7857,5.7867,5.7876,5.7938,5.7957,5.7974,0,0,0,0,0,0,5.7132,5.7191,5.7177,5.7306,5.7356,5.7408,5.7473,5.7457,5.752,5.7511,5.7514,5.7527,5.7639,5.7665,5.7604,5.7797,5.7738,5.7753,5.7776,5.7795,5.781,5.7801,5.7549,0,0,0,0,0,5.7159,5.7235,5.7282,5.739,5.7416,5.7441,5.7483,5.7483,5.7534,5.7555,5.7587,5.7637,5.7706,5.7753,5.7819,5.7948,5.7958,5.8005,5.802,5.8032,5.8044,5.8112,5.8132,5.7913,5.7913,5.7913,0,0,5.7216,5.7257,5.7305,5.7402,5.7441,5.7517,5.7459,5.7543,5.7598,5.7567,5.7672,5.7697,5.7752,5.7871,5.7925,5.7896,5.8107,5.8044,5.8054,5.806,5.8124,5.8144,5.8163,5.792,5.7919,5.7918,0,0,5.7358,5.7398,5.7492,5.7532,5.7592,5.7607,5.7629,5.7684,5.77,5.7805,5.7783,5.7848,5.797,5.8009,5.8045,5.82,5.8178,5.8221,5.8298,5.8364,5.8381,5.8396,5.8449,5.8469,5.8234,5.8234,5.8234,0,5.742,5.7537,5.7542,5.7627,5.7669,5.7646,5.7739,5.7777,5.7855,5.7884,5.7851,5.8001,5.8036,5.8163,5.82,5.8231,5.8255,5.8214,5.8379,5.8394,5.8408,5.8459,5.8479,5.8238,5.8238,5.8237,5.8237,0,5.7609,5.769,5.7758,5.7835,5.7884,5.7974,5.799,5.804,5.8035,5.8052,5.8158,5.82,5.8273,5.8304,5.83,5.8429,5.8409,5.8378,5.8317,5.8434,5.8481,5.85,5.8245,5.8243,5.8242,5.8241,0,0,5.779,5.7867,5.7892,5.7925,5.7989,5.805,5.8137,5.821,5.8251,5.8305,5.8376,5.8478,5.8449,5.849,5.849,5.8547,5.8664,5.8508,5.8509,5.8534,5.8806,5.8828,5.8851,5.8651,5.8655,5.8658,5.8801,0,5.7935,5.8089,5.8096,5.8235,5.8308,5.8285,5.836,5.8406,5.8424,5.8487,5.8507,5.8578,5.8536,5.8559,5.8616,5.8638,5.8719,5.8628,5.8714,5.8717,5.87,5.8876,5.89,5.9034,5.882,5.8823,5.8825,0,5.8126,5.8187,5.8334,5.8384,5.8415,5.8483,5.8549,5.861,5.866,5.8669,5.8714,5.8705,5.8791,5.8729,5.8845,5.8784,5.8819,5.8835,5.884,5.8847,5.8777,5.8886,5.9077,5.9096,5.8855,5.8852,5.885,0,5.824,5.8359,5.8461,5.8491,5.8553,5.8601,5.8629,5.8675,5.8718,5.8775,5.8802,5.8868,5.8904,5.8954,5.8962,5.8917,5.9078,5.9018,5.9086,5.9086,5.912,5.9118,5.9318,5.9146,5.9146,5.9146,5.9145,0,5.8401,5.8491,5.8513,5.8576,5.8675,5.868,5.8778,5.8802,5.8843,5.8908,5.8893,5.8954,5.8962,5.9024,5.9031,5.9125,5.9142,5.9149,5.915,5.915,5.9149,5.9172,5.9163,5.9151,5.915,5.9149,5.9148,0,5.8545,5.8564,5.8674,5.8724,5.8738,5.8809,5.8851,5.8909,5.8926,5.9009,5.9028,5.9053,5.9126,5.9139,5.9225,5.9229,5.9341,5.9333,5.9324,5.9323,5.939,5.9382,5.961,5.9639,5.9451,5.9452,5.9454,0,5.8646,5.8715,5.8772,5.8816,5.8846,5.8916,5.8959,5.8966,5.9012,5.9073,5.9124,5.9195,5.9252,5.9369,5.9394,5.9458,5.945,5.9526,5.946,5.9457,5.9449,5.9444,5.945,5.9538,5.954,5.9541,5.9543,0,5.8822,5.8828,5.8892,5.8959,5.9011,5.9064,5.9114,5.9149,5.9163,5.9214,5.9289,5.9333,5.942,5.949,5.9554,5.958,5.9563,5.9563,5.9582,5.9583,5.9574,5.9577,5.9357,5.9558,5.9556,5.9555,5.9554,5.9554,5.8947,5.9006,5.9055,5.9126,5.9164,5.9211,5.9268,5.9292,5.9354,5.9427,5.9426,5.9507,5.9553,5.9638,5.9668,5.973,5.9705,5.9733,5.974,5.9746,5.9752,5.9566,5.9742,5.9741,5.9741,5.974,5.974,0,5.912,5.915,5.9216,5.9286,5.9341,5.9322,5.9375,5.9422,5.9494,5.9539,5.9596,5.968,5.9747,5.9777,5.9843,5.9886,5.988,5.9903,5.9899,5.9905,5.9771,5.9747,5.9907,5.9907,5.9907,5.9907,5.9907,5.9907,5.9217,5.9315,5.9326,5.9442,5.9471,5.9551,5.9583,5.9625,5.966,5.9756,5.9812,5.9831,5.9869,5.9937,5.9997,6.0004,6.0028,6.0054,6.0057,5.9931,5.9914,5.9898,5.9876,6.006,6.006,6.0186,6.0187,6.0188]}]]